| time (UTC) | temp C | wind direction | speed KPH | gust KPH | rain 1hr cm | rain 24hr cm | rain mn cm | humidity % | barometer mb |
| 20260510120508 | 12 | 6 | 0.0 | 0.0 | 0.00 | 0.00 | 0.00 | 99 | 1016.8 |
| 20260510120004 | 12 | 14 | 0.0 | 0.0 | 0.00 | 0.00 | 0.00 | 99 | 1016.3 |
| 20260510115501 | 12 | 23 | 0.0 | 0.0 | 0.00 | 0.00 | 0.00 | 99 | 1016.6 |
| 20260510114956 | 12 | 88 | 0.0 | 0.0 | 0.00 | 0.00 | 0.00 | 99 | 1016.3 |
| 20260510114453 | 12 | 140 | 1.6 | 1.6 | 0.00 | 0.00 | 0.00 | 99 | 1016.1 |
| 20260510113949 | 12 | 110 | 1.6 | 1.6 | 0.00 | 0.00 | 0.00 | 99 | 1016.2 |
| 20260510113444 | 12 | 95 | 0.0 | 0.0 | 0.00 | 0.00 | 0.00 | 99 | 1015.8 |
| 20260510112942 | 12 | 146 | 1.6 | 1.6 | 0.00 | 0.00 | 0.00 | 99 | 1016.0 |
| 20260510112439 | 12 | 116 | 1.6 | 1.6 | 0.00 | 0.00 | 0.00 | 99 | 1015.6 |
| 20260510111935 | 12 | 158 | 1.6 | 3.2 | 0.00 | 0.00 | 0.00 | 99 | 1016.1 |
| 20260510111431 | 12 | 123 | 1.6 | 3.2 | 0.00 | 0.00 | 0.00 | 99 | 1015.7 |
| 20260510110927 | 12 | 83 | 0.0 | 1.6 | 0.00 | 0.00 | 0.00 | 99 | 1016.2 |
| 20260510110424 | 12 | 111 | 0.0 | 1.6 | 0.00 | 0.00 | 0.00 | 98 | 1016.1 |
| 20260510105920 | 12 | 38 | 1.6 | 1.6 | 0.00 | 0.00 | 0.00 | 98 | 1016.1 |
| 20260510105415 | 12 | 106 | 0.0 | 0.0 | 0.00 | 0.00 | 0.00 | 98 | 1016.0 |
| 20260510104910 | 12 | 122 | 1.6 | 1.6 | 0.00 | 0.00 | 0.00 | 98 | 1016.1 |
| 20260510104408 | 12 | 159 | 1.6 | 1.6 | 0.00 | 0.00 | 0.00 | 98 | 1015.8 |
| 20260510103904 | 12 | 100 | 1.6 | 1.6 | 0.00 | 0.00 | 0.00 | 98 | 1016.0 |
| 20260510103401 | 12 | 151 | 3.2 | 3.2 | 0.00 | 0.00 | 0.00 | 98 | 1016.0 |
| 20260510102856 | 12 | 19 | 0.0 | 0.0 | 0.00 | 0.00 | 0.00 | 97 | 1016.0 |
| 20260510102347 | 12 | 356 | 0.0 | 0.0 | 0.00 | 0.00 | 0.00 | 97 | 1015.7 |
| 20260510101844 | 13 | 64 | 0.0 | 0.0 | 0.00 | 0.00 | 0.00 | 97 | 1015.6 |
| 20260510101342 | 13 | 80 | 1.6 | 1.6 | 0.00 | 0.00 | 0.00 | 97 | 1015.6 |
| 20260510100838 | 13 | 55 | 0.0 | 0.0 | 0.00 | 0.00 | 0.00 | 97 | 1015.7 |
| 20260510100336 | 13 | 57 | 0.0 | 1.6 | 0.00 | 0.00 | 0.00 | 97 | 1016.0 |
| 20260510095831 | 13 | 59 | 0.0 | 1.6 | 0.00 | 0.00 | 0.00 | 97 | 1015.8 |
| 20260510095327 | 13 | 55 | 1.6 | 1.6 | 0.00 | 0.00 | 0.00 | 97 | 1016.0 |
| 20260510094821 | 13 | 62 | 1.6 | 1.6 | 0.00 | 0.00 | 0.00 | 97 | 1015.6 |
| 20260510094316 | 13 | 64 | 1.6 | 1.6 | 0.00 | 0.00 | 0.00 | 97 | 1015.5 |
| 20260510093813 | 13 | 71 | 0.0 | 1.6 | 0.00 | 0.00 | 0.00 | 97 | 1015.4 |
| 20260510093309 | 13 | 63 | 1.6 | 1.6 | 0.00 | 0.00 | 0.00 | 97 | 1015.5 |
| 20260510092805 | 13 | 26 | 0.0 | 1.6 | 0.00 | 0.00 | 0.00 | 97 | 1015.4 |
| 20260510092301 | 13 | 336 | 3.2 | 4.8 | 0.00 | 0.00 | 0.00 | 97 | 1015.3 |
| 20260510091757 | 13 | 340 | 3.2 | 3.2 | 0.00 | 0.00 | 0.00 | 97 | 1015.0 |
| 20260510091255 | 13 | 348 | 1.6 | 1.6 | 0.00 | 0.00 | 0.00 | 98 | 1015.1 |
| 20260510090751 | 13 | 340 | 1.6 | 3.2 | 0.00 | 0.00 | 0.00 | 98 | 1015.0 |
| 20260510090248 | 13 | 348 | 1.6 | 1.6 | 0.00 | 0.00 | 0.00 | 98 | 1014.8 |
| 20260510085744 | 13 | 353 | 0.0 | 1.6 | 0.00 | 0.00 | 0.00 | 98 | 1014.3 |
| 20260510085238 | 13 | 147 | 0.0 | 0.0 | 0.00 | 0.00 | 0.00 | 98 | 1013.9 |
| 20260510084734 | 13 | 155 | 0.0 | 0.0 | 0.00 | 0.00 | 0.00 | 98 | 1013.9 |
| 20260510084231 | 13 | 140 | 0.0 | 1.6 | 0.00 | 0.00 | 0.00 | 98 | 1013.9 |
| 20260510083727 | 13 | 153 | 1.6 | 1.6 | 0.00 | 0.00 | 0.00 | 98 | 1014.0 |
| 20260510083225 | 13 | 143 | 1.6 | 3.2 | 0.00 | 0.00 | 0.00 | 98 | 1013.8 |
| 20260510082720 | 13 | 158 | 3.2 | 3.2 | 0.00 | 0.00 | 0.00 | 98 | 1014.0 |
| 20260510082217 | 13 | 155 | 3.2 | 3.2 | 0.00 | 0.00 | 0.00 | 98 | 1014.1 |
| 20260510081716 | 13 | 152 | 1.6 | 1.6 | 0.00 | 0.00 | 0.00 | 99 | 1014.1 |
| 20260510081212 | 13 | 134 | 1.6 | 1.6 | 0.00 | 0.00 | 0.00 | 99 | 1014.2 |
| 20260510080707 | 13 | 135 | 1.6 | 1.6 | 0.00 | 0.00 | 0.00 | 99 | 1013.9 |
| 20260510080204 | 13 | 159 | 1.6 | 3.2 | 0.00 | 0.00 | 0.00 | 99 | 1013.7 |
| 20260510075700 | 13 | 151 | 3.2 | 3.2 | 0.00 | 0.00 | 0.00 | 99 | 1013.9 |
| 20260510075158 | 13 | 133 | 1.6 | 1.6 | 0.00 | 0.00 | 0.00 | 99 | 1013.9 |
| 20260510074655 | 13 | 150 | 1.6 | 1.6 | 0.00 | 0.00 | 0.00 | 99 | 1013.8 |
| 20260510074151 | 13 | 153 | 1.6 | 3.2 | 0.00 | 0.00 | 0.00 | 98 | 1013.6 |
| 20260510073648 | 13 | 160 | 1.6 | 3.2 | 0.00 | 0.00 | 0.00 | 98 | 1013.7 |
| 20260510073144 | 13 | 153 | 3.2 | 3.2 | 0.00 | 0.00 | 0.00 | 98 | 1013.9 |
| 20260510072640 | 13 | 150 | 1.6 | 1.6 | 0.00 | 0.00 | 0.00 | 98 | 1014.1 |
| 20260510072136 | 13 | 121 | 1.6 | 1.6 | 0.00 | 0.00 | 0.00 | 98 | 1014.1 |
| 20260510071632 | 13 | 132 | 1.6 | 1.6 | 0.00 | 0.00 | 0.00 | 98 | 1014.2 |
| 20260510071130 | 13 | 136 | 1.6 | 1.6 | 0.00 | 0.00 | 0.00 | 98 | 1014.1 |
| 20260510070628 | 13 | 156 | 1.6 | 1.6 | 0.00 | 0.00 | 0.00 | 98 | 1014.2 |
| 20260510070125 | 13 | 157 | 3.2 | 3.2 | 0.00 | 0.00 | 0.00 | 98 | 1013.9 |
| 20260510065620 | 13 | 152 | 3.2 | 3.2 | 0.00 | 0.00 | 0.00 | 98 | 1014.3 |
| 20260510065116 | 13 | 150 | 3.2 | 3.2 | 0.00 | 0.00 | 0.00 | 98 | 1014.6 |
| 20260510064613 | 13 | 161 | 0.0 | 1.6 | 0.00 | 0.00 | 0.00 | 98 | 1014.6 |
| 20260510064110 | 13 | 165 | 3.2 | 3.2 | 0.00 | 0.00 | 0.00 | 98 | 1014.7 |
| 20260510063607 | 13 | 160 | 1.6 | 3.2 | 0.00 | 0.00 | 0.00 | 98 | 1014.6 |
| 20260510063103 | 13 | 150 | 1.6 | 3.2 | 0.00 | 0.00 | 0.00 | 98 | 1014.7 |
| 20260510062554 | 13 | 157 | 3.2 | 3.2 | 0.00 | 0.00 | 0.00 | 98 | 1014.8 |
| 20260510062049 | 13 | 154 | 1.6 | 3.2 | 0.00 | 0.00 | 0.00 | 98 | 1014.8 |
| 20260510061546 | 13 | 151 | 3.2 | 3.2 | 0.00 | 0.00 | 0.00 | 98 | 1015.0 |
| 20260510061043 | 13 | 156 | 3.2 | 3.2 | 0.00 | 0.00 | 0.00 | 98 | 1014.8 |
| 20260510060539 | 13 | 132 | 1.6 | 1.6 | 0.00 | 0.00 | 0.00 | 98 | 1015.0 |
| 20260510060035 | 13 | 144 | 1.6 | 1.6 | 0.00 | 0.00 | 0.00 | 98 | 1015.0 |
| 20260510055531 | 13 | 154 | 3.2 | 3.2 | 0.00 | 0.00 | 0.00 | 98 | 1015.0 |
| 20260510055030 | 12 | 132 | 1.6 | 1.6 | 0.00 | 0.00 | 0.00 | 98 | 1015.0 |
| 20260510054525 | 12 | 136 | 1.6 | 1.6 | 0.00 | 0.00 | 0.00 | 98 | 1014.8 |
| 20260510054020 | 12 | 135 | 1.6 | 1.6 | 0.00 | 0.00 | 0.00 | 98 | 1015.1 |
| 20260510053515 | 12 | 121 | 1.6 | 1.6 | 0.00 | 0.00 | 0.00 | 98 | 1014.8 |
| 20260510053013 | 12 | 123 | 1.6 | 1.6 | 0.00 | 0.00 | 0.00 | 98 | 1015.1 |
| 20260510052509 | 12 | 147 | 3.2 | 3.2 | 0.00 | 0.00 | 0.00 | 98 | 1014.9 |
| 20260510052005 | 12 | 160 | 1.6 | 1.6 | 0.00 | 0.00 | 0.00 | 98 | 1014.9 |
| 20260510051500 | 12 | 142 | 1.6 | 1.6 | 0.00 | 0.00 | 0.00 | 98 | 1014.7 |
| 20260510050957 | 12 | 154 | 1.6 | 1.6 | 0.00 | 0.00 | 0.00 | 98 | 1014.9 |
| 20260510050454 | 12 | 156 | 1.6 | 1.6 | 0.00 | 0.00 | 0.00 | 98 | 1014.7 |
| 20260510045951 | 12 | 147 | 1.6 | 1.6 | 0.00 | 0.00 | 0.00 | 98 | 1014.6 |
| 20260510045449 | 12 | 149 | 3.2 | 3.2 | 0.00 | 0.00 | 0.00 | 98 | 1014.6 |
| 20260510044945 | 12 | 141 | 3.2 | 3.2 | 0.00 | 0.00 | 0.00 | 98 | 1014.4 |
| 20260510044442 | 12 | 155 | 1.6 | 1.6 | 0.00 | 0.00 | 0.00 | 97 | 1014.6 |
| 20260510043939 | 12 | 151 | 1.6 | 1.6 | 0.00 | 0.00 | 0.00 | 97 | 1014.3 |
| 20260510043434 | 12 | 147 | 3.2 | 3.2 | 0.00 | 0.00 | 0.00 | 97 | 1014.7 |
| 20260510042932 | 12 | 158 | 1.6 | 3.2 | 0.00 | 0.00 | 0.00 | 97 | 1014.5 |
| 20260510042429 | 12 | 164 | 1.6 | 3.2 | 0.00 | 0.00 | 0.00 | 97 | 1014.4 |
| 20260510041924 | 12 | 158 | 1.6 | 1.6 | 0.00 | 0.00 | 0.00 | 97 | 1014.3 |
| 20260510041422 | 12 | 161 | 3.2 | 3.2 | 0.00 | 0.00 | 0.00 | 97 | 1014.5 |
| 20260510040919 | 12 | 162 | 3.2 | 3.2 | 0.00 | 0.00 | 0.00 | 97 | 1014.5 |
| 20260510040416 | 12 | 161 | 3.2 | 3.2 | 0.00 | 0.00 | 0.00 | 97 | 1014.5 |
| 20260510035911 | 12 | 161 | 1.6 | 3.2 | 0.00 | 0.00 | 0.00 | 97 | 1014.4 |
| 20260510035408 | 12 | 146 | 1.6 | 3.2 | 0.00 | 0.00 | 0.00 | 97 | 1014.5 |
| 20260510034903 | 12 | 120 | 1.6 | 1.6 | 0.00 | 0.00 | 0.00 | 97 | 1014.4 |
| 20260510034402 | 12 | 114 | 1.6 | 1.6 | 0.00 | 0.00 | 0.00 | 97 | 1014.6 |
| 20260510033857 | 12 | 148 | 1.6 | 1.6 | 0.00 | 0.00 | 0.00 | 97 | 1014.2 |
| 20260510033354 | 12 | 161 | 1.6 | 1.6 | 0.00 | 0.00 | 0.00 | 96 | 1014.0 |
| 20260510032850 | 12 | 151 | 3.2 | 3.2 | 0.00 | 0.00 | 0.00 | 96 | 1014.1 |
| 20260510032347 | 13 | 163 | 3.2 | 3.2 | 0.00 | 0.00 | 0.00 | 96 | 1013.6 |
| 20260510031843 | 13 | 147 | 1.6 | 1.6 | 0.00 | 0.00 | 0.00 | 96 | 1013.6 |
| 20260510031338 | 13 | 163 | 3.2 | 3.2 | 0.00 | 0.00 | 0.00 | 96 | 1013.7 |
| 20260510030838 | 13 | 163 | 3.2 | 3.2 | 0.00 | 0.00 | 0.00 | 95 | 1013.4 |
| 20260510030335 | 13 | 158 | 1.6 | 3.2 | 0.00 | 0.00 | 0.00 | 95 | 1013.5 |
| 20260510025832 | 13 | 156 | 1.6 | 1.6 | 0.00 | 0.00 | 0.00 | 95 | 1013.3 |
| 20260510025330 | 13 | 161 | 3.2 | 3.2 | 0.00 | 0.00 | 0.00 | 95 | 1013.2 |
| 20260510024826 | 13 | 152 | 3.2 | 3.2 | 0.00 | 0.00 | 0.00 | 95 | 1013.4 |
| 20260510024323 | 14 | 129 | 1.6 | 1.6 | 0.00 | 0.00 | 0.00 | 94 | 1013.2 |
| 20260510023820 | 14 | 150 | 3.2 | 3.2 | 0.00 | 0.00 | 0.00 | 94 | 1013.2 |
| 20260510023316 | 14 | 163 | 3.2 | 3.2 | 0.00 | 0.00 | 0.00 | 93 | 1013.2 |
| 20260510022813 | 15 | 145 | 1.6 | 1.6 | 0.00 | 0.00 | 0.00 | 93 | 1012.9 |
| 20260510022312 | 15 | 155 | 1.6 | 1.6 | 0.00 | 0.00 | 0.00 | 93 | 1012.9 |
| 20260510021812 | 15 | 161 | 3.2 | 3.2 | 0.00 | 0.00 | 0.00 | 92 | 1012.5 |
| 20260510021310 | 15 | 157 | 1.6 | 1.6 | 0.00 | 0.00 | 0.00 | 92 | 1012.5 |
| 20260510020806 | 15 | 153 | 0.0 | 1.6 | 0.00 | 0.00 | 0.00 | 91 | 1012.4 |
| 20260510020305 | 15 | 157 | 1.6 | 1.6 | 0.00 | 0.00 | 0.00 | 91 | 1012.2 |
| 20260510015802 | 16 | 155 | 3.2 | 3.2 | 0.00 | 0.00 | 0.00 | 90 | 1012.1 |
| 20260510015258 | 16 | 155 | 3.2 | 3.2 | 0.00 | 0.00 | 0.00 | 90 | 1011.9 |
| 20260510014753 | 16 | 151 | 1.6 | 3.2 | 0.00 | 0.00 | 0.00 | 89 | 1011.9 |
| 20260510014251 | 16 | 159 | 3.2 | 3.2 | 0.00 | 0.00 | 0.00 | 88 | 1012.0 |
| 20260510013747 | 16 | 159 | 3.2 | 3.2 | 0.00 | 0.00 | 0.00 | 87 | 1011.8 |
| 20260510013242 | 17 | 147 | 1.6 | 1.6 | 0.00 | 0.00 | 0.00 | 86 | 1011.8 |
| 20260510012737 | 17 | 156 | 3.2 | 3.2 | 0.00 | 0.00 | 0.00 | 85 | 1011.5 |
| 20260510012232 | 17 | 152 | 3.2 | 3.2 | 0.00 | 0.00 | 0.00 | 84 | 1011.6 |
| 20260510011732 | 17 | 161 | 3.2 | 3.2 | 0.00 | 0.00 | 0.00 | 83 | 1011.3 |
| 20260510011228 | 18 | 161 | 3.2 | 3.2 | 0.00 | 0.00 | 0.00 | 82 | 1011.3 |
| 20260510010725 | 18 | 163 | 3.2 | 3.2 | 0.00 | 0.00 | 0.00 | 82 | 1011.2 |
| 20260510010221 | 18 | 164 | 3.2 | 3.2 | 0.00 | 0.00 | 0.00 | 81 | 1010.9 |
| 20260510005718 | 18 | 165 | 3.2 | 3.2 | 0.00 | 0.00 | 0.00 | 80 | 1011.3 |
| 20260510005214 | 19 | 160 | 3.2 | 3.2 | 0.00 | 0.00 | 0.00 | 79 | 1011.0 |
| 20260510004713 | 19 | 166 | 3.2 | 3.2 | 0.00 | 0.00 | 0.00 | 78 | 1011.1 |
| 20260510004211 | 20 | 161 | 3.2 | 3.2 | 0.00 | 0.00 | 0.00 | 77 | 1011.1 |
| 20260510003708 | 20 | 167 | 3.2 | 3.2 | 0.00 | 0.00 | 0.00 | 76 | 1011.1 |
| 20260510003203 | 20 | 167 | 3.2 | 3.2 | 0.00 | 0.00 | 0.00 | 74 | 1011.1 |
| 20260510002657 | 21 | 162 | 3.2 | 3.2 | 0.00 | 0.00 | 0.00 | 73 | 1011.0 |
| 20260510002155 | 21 | 166 | 3.2 | 3.2 | 0.00 | 0.00 | 0.00 | 71 | 1011.0 |
| 20260510001652 | 22 | 168 | 3.2 | 3.2 | 0.00 | 0.00 | 0.00 | 68 | 1010.9 |
| 20260510001150 | 23 | 158 | 3.2 | 3.2 | 0.00 | 0.00 | 0.00 | 66 | 1011.1 |
| 20260510000651 | 24 | 163 | 1.6 | 3.2 | 0.00 | 0.00 | 0.00 | 63 | 1011.0 |
| 20260510000148 | 25 | 198 | 1.6 | 1.6 | 0.00 | 0.00 | 0.00 | 62 | 1011.1 |
| 20260509235645 | 25 | 171 | 1.6 | 1.6 | 0.00 | 0.00 | 0.00 | 60 | 1010.9 |
| 20260509235141 | 26 | 160 | 1.6 | 1.6 | 0.00 | 0.00 | 0.00 | 58 | 1011.4 |
| 20260509234637 | 27 | 285 | 0.0 | 0.0 | 0.00 | 0.00 | 0.00 | 56 | 1011.1 |
| 20260509234135 | 27 | 152 | 3.2 | 3.2 | 0.00 | 0.00 | 0.00 | 54 | 1011.2 |
| 20260509233632 | 28 | 286 | 1.6 | 1.6 | 0.00 | 0.00 | 0.00 | 54 | 1011.2 |
| 20260509233124 | 28 | 248 | 1.6 | 1.6 | 0.00 | 0.00 | 0.00 | 52 | 1011.4 |
| 20260509232620 | 28 | 316 | 0.0 | 0.0 | 0.00 | 0.00 | 0.00 | 50 | 1011.2 |
| 20260509232117 | 28 | 278 | 1.6 | 1.6 | 0.00 | 0.00 | 0.00 | 50 | 1011.2 |
| 20260509231614 | 27 | 305 | 0.0 | 1.6 | 0.00 | 0.00 | 0.00 | 45 | 1011.2 |
| 20260509231112 | 27 | 293 | 1.6 | 1.6 | 0.00 | 0.00 | 0.00 | 45 | 1011.2 |
| 20260509230608 | 27 | 321 | 0.0 | 0.0 | 0.00 | 0.00 | 0.00 | 48 | 1011.1 |
| 20260509230105 | 27 | 316 | 0.0 | 0.0 | 0.00 | 0.00 | 0.00 | 48 | 1011.1 |
| 20260509225601 | 27 | 305 | 1.6 | 1.6 | 0.00 | 0.00 | 0.00 | 50 | 1011.3 |
| 20260509225056 | 27 | 306 | 0.0 | 0.0 | 0.00 | 0.00 | 0.00 | 54 | 1011.2 |
| 20260509224552 | 27 | 125 | 1.6 | 1.6 | 0.00 | 0.00 | 0.00 | 48 | 1011.2 |
| 20260509224049 | 28 | 324 | 0.0 | 0.0 | 0.00 | 0.00 | 0.00 | 42 | 1011.2 |
| 20260509223546 | 29 | 322 | 0.0 | 0.0 | 0.00 | 0.00 | 0.00 | 41 | 1011.2 |
| 20260509223044 | 30 | 255 | 1.6 | 1.6 | 0.00 | 0.00 | 0.00 | 33 | 1011.1 |
| 20260509222539 | 29 | 64 | 0.0 | 1.6 | 0.00 | 0.00 | 0.00 | 37 | 1011.2 |
| 20260509222036 | 28 | 40 | 1.6 | 1.6 | 0.00 | 0.00 | 0.00 | 36 | 1011.6 |
| 20260509221532 | 28 | 286 | 1.6 | 1.6 | 0.00 | 0.00 | 0.00 | 37 | 1011.2 |
| 20260509221028 | 28 | 196 | 0.0 | 1.6 | 0.00 | 0.00 | 0.00 | 36 | 1011.1 |
| 20260509220524 | 28 | 260 | 3.2 | 3.2 | 0.00 | 0.00 | 0.00 | 38 | 1011.1 |
| 20260509220020 | 29 | 282 | 1.6 | 1.6 | 0.00 | 0.00 | 0.00 | 37 | 1011.1 |
| 20260509215515 | 30 | 149 | 8.0 | 9.7 | 0.00 | 0.00 | 0.00 | 34 | 1011.2 |
| 20260509215013 | 30 | 255 | 3.2 | 3.2 | 0.00 | 0.00 | 0.00 | 35 | 1011.1 |
| 20260509214510 | 30 | 160 | 3.2 | 3.2 | 0.00 | 0.00 | 0.00 | 35 | 1011.3 |
| 20260509214007 | 29 | 301 | 1.6 | 1.6 | 0.00 | 0.00 | 0.00 | 38 | 1011.3 |
| 20260509213503 | 29 | 342 | 4.8 | 4.8 | 0.00 | 0.00 | 0.00 | 37 | 1011.3 |
| 20260509213000 | 30 | 298 | 4.8 | 8.0 | 0.00 | 0.00 | 0.00 | 37 | 1011.1 |
| 20260509212457 | 30 | 332 | 0.0 | 0.0 | 0.00 | 0.00 | 0.00 | 34 | 1011.3 |
| 20260509211954 | 30 | 327 | 0.0 | 0.0 | 0.00 | 0.00 | 0.00 | 35 | 1011.4 |
| 20260509211449 | 30 | 294 | 0.0 | 1.6 | 0.00 | 0.00 | 0.00 | 37 | 1011.3 |
| 20260509210946 | 30 | 232 | 4.8 | 4.8 | 0.00 | 0.00 | 0.00 | 36 | 1011.4 |
| 20260509210443 | 29 | 343 | 1.6 | 1.6 | 0.00 | 0.00 | 0.00 | 34 | 1011.4 |
| 20260509205938 | 28 | 331 | 0.0 | 0.0 | 0.00 | 0.00 | 0.00 | 36 | 1011.5 |
| 20260509205433 | 28 | 333 | 4.8 | 4.8 | 0.00 | 0.00 | 0.00 | 38 | 1011.7 |
| 20260509204929 | 29 | 317 | 6.4 | 8.0 | 0.00 | 0.00 | 0.00 | 37 | 1011.8 |
| 20260509204425 | 29 | 246 | 1.6 | 1.6 | 0.00 | 0.00 | 0.00 | 36 | 1011.5 |
| 20260509203917 | 29 | 319 | 3.2 | 3.2 | 0.00 | 0.00 | 0.00 | 35 | 1011.8 |
| 20260509203413 | 28 | 334 | 1.6 | 1.6 | 0.00 | 0.00 | 0.00 | 35 | 1011.7 |
| 20260509202910 | 28 | 329 | 1.6 | 3.2 | 0.00 | 0.00 | 0.00 | 35 | 1011.9 |
| 20260509202406 | 29 | 342 | 3.2 | 3.2 | 0.00 | 0.00 | 0.00 | 34 | 1012.0 |
| 20260509201901 | 28 | 327 | 1.6 | 1.6 | 0.00 | 0.00 | 0.00 | 33 | 1012.0 |
| 20260509201356 | 28 | 337 | 4.8 | 4.8 | 0.00 | 0.00 | 0.00 | 37 | 1011.9 |
| 20260509200853 | 28 | 349 | 0.0 | 1.6 | 0.00 | 0.00 | 0.00 | 33 | 1011.9 |
| 20260509200348 | 28 | 347 | 1.6 | 3.2 | 0.00 | 0.00 | 0.00 | 33 | 1012.0 |
| 20260509195845 | 28 | 337 | 1.6 | 3.2 | 0.00 | 0.00 | 0.00 | 37 | 1011.8 |
| 20260509195340 | 28 | 331 | 6.4 | 11.3 | 0.00 | 0.00 | 0.00 | 36 | 1011.8 |
| 20260509194839 | 28 | 4 | 4.8 | 4.8 | 0.00 | 0.00 | 0.00 | 37 | 1012.1 |
| 20260509194336 | 29 | 289 | 6.4 | 8.0 | 0.00 | 0.00 | 0.00 | 32 | 1011.7 |
| 20260509193833 | 28 | 294 | 1.6 | 1.6 | 0.00 | 0.00 | 0.00 | 34 | 1012.0 |
| 20260509193332 | 28 | 323 | 1.6 | 3.2 | 0.00 | 0.00 | 0.00 | 34 | 1012.0 |
| 20260509192829 | 28 | 10 | 1.6 | 1.6 | 0.00 | 0.00 | 0.00 | 35 | 1012.0 |
| 20260509192325 | 28 | 231 | 4.8 | 4.8 | 0.00 | 0.00 | 0.00 | 33 | 1012.1 |
| 20260509191820 | 28 | 98 | 1.6 | 3.2 | 0.00 | 0.00 | 0.00 | 37 | 1012.1 |
| 20260509191316 | 28 | 303 | 3.2 | 4.8 | 0.00 | 0.00 | 0.00 | 34 | 1012.3 |
| 20260509190812 | 29 | 110 | 8.0 | 11.3 | 0.00 | 0.00 | 0.00 | 35 | 1012.4 |
| 20260509190309 | 28 | 336 | 0.0 | 0.0 | 0.00 | 0.00 | 0.00 | 42 | 1012.3 |
| 20260509185807 | 28 | 12 | 1.6 | 1.6 | 0.00 | 0.00 | 0.00 | 37 | 1012.5 |
| 20260509185306 | 27 | 135 | 1.6 | 1.6 | 0.00 | 0.00 | 0.00 | 37 | 1012.8 |
| 20260509184800 | 27 | 356 | 6.4 | 9.7 | 0.00 | 0.00 | 0.00 | 36 | 1012.4 |
| 20260509184258 | 27 | 329 | 4.8 | 4.8 | 0.00 | 0.00 | 0.00 | 39 | 1012.5 |
| 20260509183754 | 27 | 14 | 4.8 | 8.0 | 0.00 | 0.00 | 0.00 | 39 | 1012.4 |
| 20260509183249 | 27 | 19 | 1.6 | 3.2 | 0.00 | 0.00 | 0.00 | 38 | 1012.5 |
| 20260509182745 | 27 | 351 | 4.8 | 8.0 | 0.00 | 0.00 | 0.00 | 39 | 1012.5 |
| 20260509182243 | 27 | 348 | 6.4 | 8.0 | 0.00 | 0.00 | 0.00 | 40 | 1012.4 |
| 20260509181740 | 27 | 358 | 1.6 | 1.6 | 0.00 | 0.00 | 0.00 | 40 | 1012.5 |
| 20260509181237 | 28 | 299 | 4.8 | 4.8 | 0.00 | 0.00 | 0.00 | 38 | 1012.5 |
| 20260509180734 | 28 | 327 | 0.0 | 0.0 | 0.00 | 0.00 | 0.00 | 38 | 1012.9 |
| 20260509180231 | 27 | 90 | 3.2 | 3.2 | 0.00 | 0.00 | 0.00 | 37 | 1012.8 |
| 20260509175727 | 28 | 336 | 1.6 | 1.6 | 0.00 | 0.00 | 0.00 | 39 | 1012.8 |
| 20260509175223 | 28 | 207 | 4.8 | 4.8 | 0.00 | 0.00 | 0.00 | 38 | 1012.5 |
| 20260509174719 | 28 | 52 | 1.6 | 1.6 | 0.00 | 0.00 | 0.00 | 37 | 1012.6 |
| 20260509174215 | 27 | 352 | 1.6 | 1.6 | 0.00 | 0.00 | 0.00 | 40 | 1012.8 |
| 20260509173711 | 27 | 161 | 6.4 | 8.0 | 0.00 | 0.00 | 0.00 | 37 | 1013.1 |
| 20260509173207 | 28 | 169 | 4.8 | 4.8 | 0.00 | 0.00 | 0.00 | 40 | 1013.0 |
| 20260509172703 | 27 | 353 | 1.6 | 1.6 | 0.00 | 0.00 | 0.00 | 38 | 1013.2 |
| 20260509172200 | 27 | 53 | 1.6 | 1.6 | 0.00 | 0.00 | 0.00 | 43 | 1013.2 |
| 20260509171655 | 27 | 349 | 3.2 | 3.2 | 0.00 | 0.00 | 0.00 | 43 | 1013.0 |
| 20260509171151 | 27 | 341 | 4.8 | 8.0 | 0.00 | 0.00 | 0.00 | 48 | 1013.2 |
| 20260509170649 | 26 | 47 | 1.6 | 1.6 | 0.00 | 0.00 | 0.00 | 45 | 1013.0 |
| 20260509170144 | 26 | 24 | 3.2 | 3.2 | 0.00 | 0.00 | 0.00 | 46 | 1013.0 |
| 20260509165643 | 27 | 279 | 4.8 | 8.0 | 0.00 | 0.00 | 0.00 | 45 | 1013.2 |
| 20260509165139 | 27 | 134 | 3.2 | 3.2 | 0.00 | 0.00 | 0.00 | 47 | 1013.2 |
| 20260509164635 | 27 | 19 | 1.6 | 1.6 | 0.00 | 0.00 | 0.00 | 49 | 1013.4 |
| 20260509164131 | 27 | 1 | 0.0 | 1.6 | 0.00 | 0.00 | 0.00 | 47 | 1013.1 |
| 20260509163628 | 26 | 52 | 0.0 | 0.0 | 0.00 | 0.00 | 0.00 | 50 | 1013.2 |
| 20260509163124 | 26 | 155 | 1.6 | 1.6 | 0.00 | 0.00 | 0.00 | 55 | 1013.1 |
| 20260509162621 | 25 | 103 | 3.2 | 3.2 | 0.00 | 0.00 | 0.00 | 53 | 1013.2 |
| 20260509162117 | 25 | 132 | 6.4 | 8.0 | 0.00 | 0.00 | 0.00 | 53 | 1013.1 |
| 20260509161613 | 26 | 142 | 4.8 | 8.0 | 0.00 | 0.00 | 0.00 | 56 | 1012.8 |
| 20260509161109 | 25 | 358 | 4.8 | 4.8 | 0.00 | 0.00 | 0.00 | 55 | 1013.0 |
| 20260509160605 | 25 | 23 | 1.6 | 3.2 | 0.00 | 0.00 | 0.00 | 55 | 1013.0 |
| 20260509160100 | 25 | 325 | 0.0 | 0.0 | 0.00 | 0.00 | 0.00 | 57 | 1013.2 |
| 20260509155557 | 25 | 215 | 1.6 | 1.6 | 0.00 | 0.00 | 0.00 | 60 | 1013.3 |
| 20260509155053 | 25 | 44 | 0.0 | 0.0 | 0.00 | 0.00 | 0.00 | 61 | 1013.2 |
| 20260509154549 | 25 | 342 | 3.2 | 3.2 | 0.00 | 0.00 | 0.00 | 57 | 1013.2 |
| 20260509154047 | 25 | 101 | 1.6 | 3.2 | 0.00 | 0.00 | 0.00 | 61 | 1013.2 |
| 20260509153544 | 25 | 26 | 0.0 | 1.6 | 0.00 | 0.00 | 0.00 | 60 | 1013.0 |
| 20260509153040 | 25 | 34 | 0.0 | 1.6 | 0.00 | 0.00 | 0.00 | 63 | 1013.3 |
| 20260509152536 | 24 | 0 | 0.0 | 0.0 | 0.00 | 0.00 | 0.00 | 66 | 1013.2 |
| 20260509152034 | 24 | 47 | 1.6 | 3.2 | 0.00 | 0.00 | 0.00 | 67 | 1013.0 |
| 20260509151530 | 23 | 33 | 0.0 | 1.6 | 0.00 | 0.00 | 0.00 | 67 | 1013.3 |
| 20260509151028 | 23 | 349 | 0.0 | 1.6 | 0.00 | 0.00 | 0.00 | 68 | 1013.1 |
| 20260509150525 | 23 | 10 | 0.0 | 0.0 | 0.00 | 0.00 | 0.00 | 72 | 1013.2 |
| 20260509150024 | 23 | 29 | 1.6 | 1.6 | 0.00 | 0.00 | 0.00 | 75 | 1013.2 |
| 20260509145519 | 22 | 14 | 0.0 | 0.0 | 0.00 | 0.00 | 0.00 | 83 | 1013.1 |
| 20260509145014 | 21 | 76 | 1.6 | 1.6 | 0.00 | 0.00 | 0.00 | 84 | 1013.3 |
| 20260509144511 | 20 | 12 | 0.0 | 0.0 | 0.00 | 0.00 | 0.00 | 88 | 1013.3 |
| 20260509144008 | 19 | 23 | 1.6 | 1.6 | 0.00 | 0.00 | 0.00 | 92 | 1013.3 |
| 20260509143505 | 18 | 313 | 3.2 | 3.2 | 0.00 | 0.00 | 0.00 | 96 | 1013.3 |
| 20260509143003 | 18 | 322 | 4.8 | 9.7 | 0.00 | 0.00 | 0.00 | 99 | 1013.2 |
| 20260509142458 | 17 | 18 | 1.6 | 1.6 | 0.00 | 0.00 | 0.00 | 99 | 1013.3 |
| 20260509141954 | 17 | 350 | 1.6 | 3.2 | 0.00 | 0.00 | 0.00 | 99 | 1013.4 |
| 20260509141450 | 17 | 351 | 8.0 | 9.7 | 0.00 | 0.00 | 0.00 | 99 | 1013.2 |
| 20260509140948 | 17 | 33 | 1.6 | 3.2 | 0.00 | 0.00 | 0.00 | 99 | 1013.1 |
| 20260509140443 | 16 | 85 | 1.6 | 1.6 | 0.00 | 0.00 | 0.00 | 99 | 1013.0 |
| 20260509135942 | 15 | 32 | 1.6 | 1.6 | 0.00 | 0.00 | 0.00 | 99 | 1013.2 |
| 20260509135439 | 14 | 27 | 0.0 | 1.6 | 0.00 | 0.00 | 0.00 | 99 | 1012.9 |
| 20260509134936 | 13 | 28 | 0.0 | 0.0 | 0.00 | 0.00 | 0.00 | 99 | 1012.9 |
| 20260509134434 | 13 | 26 | 0.0 | 0.0 | 0.00 | 0.00 | 0.00 | 99 | 1012.9 |
| 20260509133931 | 12 | 29 | 0.0 | 0.0 | 0.00 | 0.00 | 0.00 | 99 | 1012.8 |
| 20260509133427 | 12 | 41 | 0.0 | 1.6 | 0.00 | 0.00 | 0.00 | 99 | 1012.8 |
| 20260509132926 | 11 | 47 | 1.6 | 1.6 | 0.00 | 0.00 | 0.00 | 99 | 1012.8 |
| 20260509132424 | 11 | 50 | 0.0 | 0.0 | 0.00 | 0.00 | 0.00 | 99 | 1012.9 |
| 20260509131920 | 11 | 71 | 1.6 | 1.6 | 0.00 | 0.00 | 0.00 | 99 | 1013.1 |
| 20260509131418 | 10 | 46 | 1.6 | 1.6 | 0.00 | 0.00 | 0.00 | 99 | 1012.8 |
| 20260509130914 | 10 | 12 | 0.0 | 0.0 | 0.00 | 0.00 | 0.00 | 99 | 1012.8 |
| 20260509130409 | 10 | 28 | 0.0 | 0.0 | 0.00 | 0.00 | 0.00 | 99 | 1012.8 |
| 20260509125907 | 10 | 53 | 0.0 | 1.6 | 0.00 | 0.00 | 0.00 | 99 | 1012.8 |
| 20260509125403 | 9 | 58 | 1.6 | 1.6 | 0.00 | 0.00 | 0.00 | 99 | 1012.5 |
| 20260509124859 | 9 | 72 | 1.6 | 1.6 | 0.00 | 0.00 | 0.00 | 99 | 1012.6 |
| 20260509124356 | 8 | 80 | 1.6 | 1.6 | 0.00 | 0.00 | 0.00 | 99 | 1012.8 |
| 20260509123854 | 8 | 103 | 0.0 | 1.6 | 0.00 | 0.00 | 0.00 | 99 | 1012.6 |
| 20260509123351 | 8 | 130 | 0.0 | 1.6 | 0.00 | 0.00 | 0.00 | 99 | 1012.5 |
| 20260509122847 | 8 | 96 | 1.6 | 1.6 | 0.00 | 0.00 | 0.00 | 99 | 1012.5 |
| 20260509122344 | 8 | 100 | 0.0 | 0.0 | 0.00 | 0.00 | 0.00 | 99 | 1012.4 |
| 20260509121841 | 8 | 109 | 1.6 | 1.6 | 0.00 | 0.00 | 0.00 | 99 | 1012.4 |
| 20260509121338 | 8 | 116 | 1.6 | 1.6 | 0.00 | 0.00 | 0.00 | 99 | 1012.3 |
| 20260509120836 | 8 | 124 | 1.6 | 1.6 | 0.00 | 0.00 | 0.00 | 99 | 1012.5 |